| time (UTC) | temp F | wind direction | speed knots | gust knots | rain 1hr in | rain 24hr in | rain mn in | humidity % | barometer mb |
| 20260901130152 | 70 | 189 | 0.0 | 2.6 | 0.00 | 0.02 | 0.02 | 95 | 1016.5 |
| 20260901110152 | 69 | 224 | 0.0 | 5.2 | 0.01 | 0.02 | 0.02 | 95 | 1016.5 |
| 20260901100153 | 69 | 168 | 0.0 | 2.6 | 0.00 | 0.00 | 0.00 | 94 | 1016.3 |
| 20260901090151 | 69 | 166 | 0.0 | 2.6 | 0.00 | 0.00 | 0.00 | 93 | 1016.5 |
| 20260901083150 | 70 | 181 | 0.0 | 3.5 | 0.00 | 0.00 | 0.00 | 93 | 1016.8 |
| 20260901080150 | 70 | 0 | 0.0 | 0.0 | 0.00 | 0.00 | 0.00 | 91 | 1017.0 |
| 20260901073150 | 70 | 0 | 0.0 | 0.0 | 0.00 | 0.00 | 0.00 | 91 | 1017.0 |
| 20260901070154 | 70 | 0 | 0.0 | 0.0 | 0.00 | 0.00 | 0.00 | 89 | 1017.3 |
| 20260901060151 | 70 | 0 | 0.0 | 0.0 | 0.00 | 0.00 | 0.00 | 87 | 1017.6 |
| 20260901040154 | 71 | 193 | 0.0 | 0.0 | 0.00 | 0.00 | 0.00 | 83 | 1018.2 |
| 20260901023150 | 71 | 186 | 0.9 | 2.6 | 0.00 | 0.00 | 0.00 | 81 | 1018.4 |
| 20260901000155 | 72 | 174 | 0.0 | 3.5 | 0.00 | 0.00 | 0.00 | 73 | 1018.5 |
| 20260831230151 | 73 | 189 | 0.0 | 0.9 | 0.00 | 0.00 | 0.00 | 68 | 1018.9 |
| 20260831223150 | 74 | 210 | 0.9 | 3.5 | 0.00 | 0.00 | 0.00 | 71 | 1018.9 |
| 20260831210151 | 78 | 195 | 0.9 | 3.5 | 0.00 | 0.00 | 0.00 | 61 | 1018.8 |
| 20260831203150 | 81 | 209 | 1.7 | 7.0 | 0.00 | 0.00 | 0.00 | 49 | 1018.8 |
| 20260831190152 | 79 | 229 | 2.6 | 7.0 | 0.00 | 0.00 | 0.00 | 54 | 1019.6 |
| 20260831180151 | 83 | 147 | 0.0 | 0.9 | 0.00 | 0.00 | 0.00 | 49 | 1019.8 |
| 20260831170241 | 83 | 97 | 0.9 | 2.6 | 0.00 | 0.00 | 0.00 | 47 | 1020.1 |
| 20260831170151 | 83 | 97 | 0.9 | 2.6 | 0.00 | 0.00 | 0.00 | 47 | 1020.1 |